www.pogodaiklimat.ru

Погода и климат >> Архив погоды >> Австралия >> Новый Южный Уэльс >> Тибообера


ПОГОДА в Тибообере

  • Прогноз погоды в Тибообере
  • Монитор погоды в Тибообере

АРХИВ ПОГОДЫ в Тибообере

Время (UTC), дата Ветер
(напр.,м/с)
 
Видим.   Явления Облачность Т
(С)
Тd
(С)
f
(%)
Тe
(С)
Тes
(С)
Комфортность P
(гПа)
Po
(гПа)
Тmin
(С)
Tmax
(С)
R
(мм)
R24
(мм)
S
(см)
10 11.09 СВ 3 н/о н/о +17.6 -12.1 12 +18 +18 1028.2 1007.2
11 11.09 В 3 н/о н/о +15.7 -11.7 14 +15 +15 1028.3 1007.3
12 11.09 В 3 н/о н/о +15.7 -10.8 15 +15 +15 1028.3 1007.3
13 11.09 В 4 н/о н/о +15.1 -10.5 16 +15 +15 1027.8 1006.8
14 11.09 В 2 н/о н/о +13.8 -10.8 17 +14 +14 1027.7 1006.7 +23.7
15 11.09 штиль 0 н/о н/о +13.9 -8.7 20 +14 +14 1027.5 1006.5
16 11.09 штиль 0 н/о н/о +12.5 -8.6 22 +13 +13 1026.9 1005.9
17 11.09 З 2 н/о н/о +10.8 -10.0 22 +10 +10 1026.6 1005.6
18 11.09 Ю 1 н/о н/о +9.3 -11.3 22 +11 +11 1026.6 1005.6
19 11.09 В 2 н/о н/о +12.8 -7.8 23 +13 +13 1026.5 1005.5
20 11.09 В 2 н/о н/о +12.3 -8.2 23 +12 +12 1026.8 1005.8
21 11.09 СВ 4 н/о н/о +11.9 -7.5 25 +11 +11 1027.2 1006.2
22 11.09 СВ 1 н/о н/о +13.3 -7.9 22 +15 +15 1028.1 1007.1
23 11.09 С 5 н/о н/о +17.8 -7.5 17 +17 +17 1027.9 1006.9
00 12.09 С 4 н/о н/о +21.0 -8.4 13 +20 +20 1028.1 1007.1
01 12.09 С 5 н/о н/о +23.2 -11.4 9 +20 +20 1027.0 1006.0
02 12.09 С 5 н/о н/о +24.7 -11.7 8 +22 +22 комфорт 1026.4 1005.4 +9.0
03 12.09 З 6 н/о н/о +25.9 -14.4 6 +22 +22 комфорт 1025.2 1004.3
04 12.09 З 6 н/о н/о +26.6 -13.9 6 +23 +23 комфорт 1024.1 1003.2
05 12.09 З 7 н/о н/о +26.9 -15.9 5 +23 +23 комфорт 1023.3 1002.4
06 12.09 З 7 н/о н/о +26.8 -18.6 4 +23 +23 комфорт 1022.9 1002.0
07 12.09 З 5 н/о н/о +26.5 -16.1 5 +23 +23 комфорт 1023.1 1002.2
08 12.09 З 5 н/о н/о +25.2 -17.1 5 +22 +22 комфорт 1023.3 1002.4
09 12.09 З 4 н/о н/о +22.1 -17.1 6 +20 +20 1023.8 1002.9
10 12.09 З 4 н/о н/о +20.1 -16.7 7 +19 +19 1024.3 1003.4
11 12.09 СЗ 5 н/о н/о +19.5 -15.6 8 +19 +19 1024.1 1003.2
12 12.09 З 4 н/о н/о +17.6 -15.6 9 +17 +17 1024.4 1003.5
13 12.09 З 5 н/о н/о +17.3 -15.8 9 +17 +17 1024.2 1003.3
14 12.09 З 5 н/о н/о +16.9 -16.1 9 +16 +16 1024.1 1003.2 +27.9
15 12.09 З 4 н/о н/о +15.7 -15.8 10 +15 +15 1023.9 1003.0
16 12.09 З 5 н/о н/о +15.3 -16.1 10 +14 +14 1023.3 1002.4
17 12.09 З 5 н/о н/о +15.5 -15.9 10 +15 +15 1022.9 1002.0
18 12.09 З 5 н/о н/о +14.7 -16.6 10 +14 +14 1022.6 1001.7
19 12.09 Ю 5 н/о н/о +14.8 -16.5 10 +14 +14 1023.5 1002.6
20 12.09 ЮЗ 4 н/о н/о +12.1 -16.4 12 +11 +11 1023.9 1003.0
21 12.09 ЮЗ 4 н/о н/о +11.8 -15.7 13 +11 +11 1024.6 1003.7
22 12.09 ЮВ 3 н/о н/о +16.7 -10.9 14 +17 +17 1025.2 1004.3
23 12.09 В 7 н/о н/о +20.1 -4.2 19 +19 +19 1025.8 1004.9
00 13.09 В 5 н/о н/о +22.4 -3.8 17 +21 +21 комфорт 1025.8 1004.9
01 13.09 В 4 н/о н/о +24.7 -2.8 16 +23 +23 комфорт 1025.4 1004.5
02 13.09 ЮВ 4 н/о н/о +26.2 -4.4 13 +24 +24 комфорт 1024.7 1003.8 +11.6
03 13.09 ЮВ 4 н/о н/о +27.9 -7.9 9 +24 +24 комфорт 1023.9 1003.0
04 13.09 Ю 4 н/о н/о +29.0 -8.5 8 +25 +25 комфорт 1023.0 1002.1
05 13.09 Ю 4 н/о н/о +29.9 -9.6 7 +26 +26 жарко 1022.4 1001.5
06 13.09 ЮЗ 5 н/о н/о +29.5 -9.9 7 +26 +26 жарко 1022.2 1001.3
07 13.09 Ю 6 н/о н/о +28.6 -8.8 8 +25 +25 комфорт 1022.4 1001.5
08 13.09 Ю 6 н/о н/о +27.1 -8.5 9 +24 +24 комфорт 1022.6 1001.7
09 13.09 Ю 4 н/о н/о +24.8 -6.5 12 +22 +22 комфорт 1023.2 1002.3
10 13.09 Ю 3 н/о н/о +22.4 -5.5 15 +21 +21 комфорт 1023.8 1002.9
11 13.09 Ю 3 н/о н/о +21.3 -5.5 16 +20 +20 1024.3 1003.4
12 13.09 Ю 2 н/о н/о +19.4 -5.5 18 +20 +20 1024.5 1003.6
13 13.09 ЮЗ 5 н/о н/о +17.6 -5.0 21 +17 +17 1024.8 1003.9
14 13.09 Ю 3 н/о н/о +18.0 -3.4 23 +18 +18 1025.0 1004.1 +30.2
15 13.09 ЮВ 5 н/о н/о +18.0 -2.3 25 +18 +18 1024.9 1004.0
16 13.09 ЮВ 4 н/о н/о +16.8 -2.3 27 +17 +17 1024.8 1003.9
17 13.09 ЮВ 5 н/о н/о +16.8 -0.9 30 +16 +16 1024.5 1003.6
18 13.09 ЮВ 5 н/о н/о +15.9 -0.3 33 +15 +15 1024.3 1003.4
19 13.09 ЮВ 5 н/о н/о +15.2 -0.1 35 +14 +14 1024.6 1003.7
20 13.09 Ю 5 н/о н/о +14.6 +0.1 37 +13 +13 1025.0 1004.1
21 13.09 ЮВ 6 н/о н/о +15.2 +0.6 37 +14 +14 1025.8 1004.9
22 13.09 ЮВ 6 н/о н/о +17.0 +0.6 33 +16 +16 1026.6 1005.6
23 13.09 ЮВ 6 н/о н/о +19.3 -0.1 27 +19 +19 1027.0 1006.0
00 14.09 В 7 н/о н/о +20.9 +0.2 25 +21 +21 комфорт 1027.0 1006.0
01 14.09 В 6 н/о н/о +23.0 -0.5 21 +22 +22 комфорт 1026.7 1005.7
02 14.09 В 6 н/о н/о +24.1 -1.7 18 +23 +23 комфорт 1025.8 1004.9 +14.5
03 14.09 В 6 н/о н/о +25.2 -5.1 13 +23 +23 комфорт 1024.9 1004.0
04 14.09 ЮВ 6 н/о н/о +26.4 -5.3 12 +24 +24 комфорт 1023.8 1002.9
05 14.09 ЮВ 5 н/о н/о +26.3 -7.7 10 +23 +23 комфорт 1023.2 1002.3
06 14.09 ЮВ 4 н/о н/о +27.5 -8.2 9 +24 +24 комфорт 1022.9 1002.0
07 14.09 В 5 н/о н/о +27.3 -8.3 9 +24 +24 комфорт 1022.8 1001.9
08 14.09 ЮВ 5 н/о н/о +25.8 -5.7 12 +23 +23 комфорт 1023.2 1002.3
09 14.09 ЮВ 4 н/о н/о +22.9 -5.1 15 +21 +21 комфорт 1023.5 1002.6
10 14.09 ЮВ 3 н/о н/о +21.5 -2.4 20 +21 +21 комфорт 1023.8 1002.9
11 14.09 ЮВ 3 н/о н/о +20.4 -2.0 22 +21 +21 комфорт 1023.9 1003.0
12 14.09 ЮВ 3 н/о н/о +19.4 -3.5 21 +20 +20 1023.9 1003.0
13 14.09 ЮВ 3 н/о н/о +18.5 -4.2 21 +19 +19 1023.6 1002.7
14 14.09 ЮВ 2 н/о н/о +17.9 -4.1 22 +18 +18 1023.5 1002.6 +27.8
15 14.09 Ю 2 н/о н/о +16.0 -4.5 24 +16 +16 1023.4 1002.5
16 14.09 Ю 2 н/о н/о +15.7 -2.7 28 +16 +16 1023.1 1002.2
17 14.09 ЮЗ 2 н/о н/о +14.5 -3.3 29 +14 +14 1022.6 1001.7
18 14.09 ЮЗ 3 н/о н/о +12.6 -4.5 30 +12 +12 1022.3 1001.4
19 14.09 Ю 3 н/о н/о +12.6 -3.2 33 +12 +12 1022.6 1001.7
20 14.09 ЮВ 2 н/о н/о +13.7 -2.7 32 +14 +14 1022.9 1002.0
21 14.09 Ю 2 н/о н/о +13.9 -3.4 30 +14 +14 1023.5 1002.6
22 14.09 ЮВ 3 н/о н/о +17.8 -4.2 22 +18 +18 1024.1 1003.2
23 14.09 В 4 н/о н/о +21.3 -4.7 17 +20 +20 1024.4 1003.5
00 15.09 СВ 6 н/о н/о +24.4 -7.9 11 +22 +22 комфорт 1023.9 1003.0
01 15.09 СВ 7 н/о н/о +26.6 -10.3 8 +23 +23 комфорт 1022.9 1002.0
02 15.09 С 6 н/о н/о +27.7 -9.5 8 +24 +24 комфорт 1022.1 1001.2 +12.6
03 15.09 С 5 н/о н/о +28.2 -10.8 7 +24 +24 комфорт 1020.8 1000.0
04 15.09 С 5 н/о н/о +29.1 -10.2 7 +25 +25 комфорт 1019.9 999.1
05 15.09 С 5 н/о н/о +29.6 -11.7 6 +25 +25 комфорт 1019.1 998.3
06 15.09 СЗ 4 н/о н/о +29.7 -11.7 6 +26 +26 жарко 1018.9 998.1
07 15.09 С 3 н/о н/о +29.6 -11.7 6 +25 +25 комфорт 1018.8 998.0
08 15.09 С 2 н/о н/о +28.6 -12.4 6 +25 +25 комфорт 1019.0 998.2
09 15.09 СВ 2 н/о н/о +25.5 -11.1 8 +22 +22 комфорт 1019.3 998.5
10 15.09 СВ 3 н/о н/о +23.9 -12.3 8 +21 +21 комфорт 1019.7 998.9
11 15.09 С 4 н/о н/о +22.9 -11.6 9 +20 +20 1019.7 998.9
12 15.09 С 4 н/о н/о +22.6 -11.8 9 +20 +20 1019.6 998.8
13 15.09 С 3 н/о н/о +21.8 -11.1 10 +20 +20 1019.3 998.5
14 15.09 С 3 н/о н/о +20.5 -12.1 10 +20 +20 1019.1 998.3 +30.7
15 15.09 Ю 2 н/о н/о +16.8 -11.7 13 +17 +17 1018.8 998.0
16 15.09 С 2 н/о н/о +17.4 -9.5 15 +18 +18 1018.1 997.3
17 15.09 штиль 0 н/о н/о +17.4 -9.5 15 +17 +17 1017.6 996.8
18 15.09 С 4 н/о н/о +19.1 -10.9 12 +19 +19 1017.1 996.3
19 15.09 С 5 н/о н/о +18.8 -11.2 12 +18 +18 1017.0 996.2
20 15.09 С 5 н/о н/о +19.6 -11.6 11 +19 +19 1017.3 996.5
21 15.09 С 5 н/о н/о +19.6 -11.6 11 +19 +19 1017.5 996.7
22 15.09 С 5 н/о н/о +21.0 -13.0 9 +20 +20 1017.8 997.0
23 15.09 С 5 н/о н/о +24.0 -12.2 8 +21 +21 комфорт 1017.8 997.0
00 16.09 С 7 н/о н/о +27.7 -13.1 6 +24 +24 комфорт 1017.6 996.8
01 16.09 С 7 н/о н/о +30.9 -13.1 5 +26 +26 жарко 1017.2 996.4
02 16.09 СЗ 8 н/о н/о +31.7 -15.2 4 +27 +27 жарко 1016.7 995.9 +16.8
03 16.09 З 8 н/о н/о +32.1 -14.9 4 +27 +27 жарко 1016.0 995.3
04 16.09 З 8 н/о н/о +33.2 -14.2 4 +28 +28 жарко 1015.1 994.4
05 16.09 З 8 н/о н/о +33.0 -14.3 4 +28 +28 жарко 1014.5 993.8
06 16.09 З 7 н/о н/о +32.6 -14.6 4 +28 +28 жарко 1014.0 993.3
07 16.09 З 8 н/о н/о +32.5 -14.7 4 +28 +28 жарко 1013.9 993.2
08 16.09 З 7 н/о н/о +30.8 -13.1 5 +26 +26 жарко 1014.0 993.3
09 16.09 З 5 н/о н/о +29.5 -11.8 6 +25 +25 комфорт 1014.2 993.5
10 16.09 Ю 6 н/о н/о +27.5 -6.8 10 +24 +24 комфорт 1014.9 994.2
11 16.09 Ю 9 н/о н/о +22.9 +3.4 28 +23 +23 комфорт 1016.2 995.5
12 16.09 Ю 11 н/о н/о +20.7 +4.3 34 +21 +21 комфорт 1017.3 996.5
13 16.09 Ю 10 н/о н/о +19.3 +3.9 36 +19 +19 1017.9 997.1
14 16.09 Ю 12 н/о н/о +18.0 +3.5 38 +17 +17 1018.6 997.8 +33.9
15 16.09 Ю 11 н/о н/о +14.8 +3.9 48 +12 +12 1019.2 998.4
16 16.09 Ю 10 н/о н/о +13.5 +4.1 53 +11 +11 1019.4 998.6
17 16.09 Ю 11 н/о н/о +12.2 +5.1 62 +9 +9 1019.6 998.8
18 16.09 Ю 10 н/о н/о +10.9 +4.4 64 +7 +7 1020.1 999.3
19 16.09 Ю 11 н/о н/о +9.8 +4.4 69 +5 +5 1020.7 999.9
20 16.09 Ю 9 н/о н/о +9.5 +4.1 69 +5 +5 1021.6 1000.7
21 16.09 Ю 9 н/о н/о +9.6 +2.2 60 +5 +5 1022.8 1001.9
22 16.09 ЮВ 9 н/о н/о +10.6 +0.1 48 +7 +7 1023.7 1002.8
23 16.09 ЮВ 10 н/о н/о +11.8 -2.0 38 +8 +8 1024.1 1003.2
00 17.09 ЮВ 10 н/о н/о +12.7 -5.3 28 +10 +10 1024.3 1003.4
01 17.09 ЮВ 9 н/о н/о +14.4 -6.4 23 +12 +12 1024.0 1003.1
02 17.09 Ю 9 н/о н/о +15.1 -7.0 21 +13 +13 1023.4 1002.5 +9.4
03 17.09 Ю 8 н/о н/о +17.0 -9.0 16 +16 +16 1023.0 1002.1
04 17.09 ЮВ 7 н/о н/о +17.7 -13.1 11 +17 +17 1022.5 1001.6
05 17.09 ЮВ 7 н/о н/о +17.7 -15.5 9 +17 +17 1022.2 1001.3
06 17.09 Ю 7 н/о н/о +18.6 -16.3 8 +18 +18 1021.7 1000.8
07 17.09 Ю 7 н/о н/о +18.6 -16.3 8 +18 +18 1022.4 1001.5
08 17.09 Ю 6 н/о н/о +17.5 -15.7 9 +17 +17 1022.5 1001.6
09 17.09 Ю 5 н/о н/о +16.1 -13.3 12 +15 +15 1023.5 1002.6
10 17.09 ЮВ 5 н/о н/о +14.7 -12.5 14 +14 +14 1024.2 1003.3
11 17.09 ЮВ 5 н/о н/о +13.4 -12.7 15 +12 +12 1024.8 1003.9
12 17.09 ЮВ 5 н/о н/о +12.7 -9.7 20 +11 +11 1025.1 1004.2
13 17.09 Ю 5 н/о н/о +11.7 -8.2 24 +10 +10 1025.3 1004.4
14 17.09 Ю 5 н/о н/о +11.1 -7.2 27 +9 +9 1024.9 1004.0 +20.9
15 17.09 Ю 5 н/о н/о +10.7 -6.1 30 +9 +9 1024.5 1003.6
16 17.09 ЮВ 6 н/о н/о +10.4 -5.2 33 +8 +8 1023.9 1003.0
17 17.09 ЮВ 5 н/о н/о +10.3 -3.0 39 +8 +8 1023.8 1002.9
18 17.09 ЮВ 4 н/о н/о +9.3 -2.9 42 +7 +7 1023.7 1002.8
19 17.09 Ю 3 н/о н/о +7.7 -3.5 45 +6 +6 1023.9 1003.0
20 17.09 ЮЗ 2 н/о н/о +6.6 -3.6 48 +5 +5 1024.6 1003.7
21 17.09 ЮЗ 3 н/о н/о +7.1 -3.7 46 +5 +5 1025.0 1004.1
22 17.09 Ю 3 н/о н/о +10.2 -1.8 43 +9 +9 1025.8 1004.9
23 17.09 ЮВ 4 н/о н/о +13.0 +0.4 42 +12 +12 1025.9 1005.0
00 18.09 В 5 н/о н/о +15.0 +2.2 42 +14 +14 1025.8 1004.9
01 18.09 В 4 н/о н/о +16.3 0.0 33 +16 +16 1025.0 1004.1
02 18.09 СВ 4 н/о н/о +18.2 -0.1 29 +18 +18 1024.0 1003.1 +6.3
03 18.09 В 5 н/о н/о +19.2 -1.3 25 +19 +19 1022.9 1002.0
05 18.09 СВ 4 н/о н/о +21.6 -1.0 22 +21 +21 комфорт 1021.5 1000.6
06 18.09 СВ 3 н/о н/о +22.0 -2.0 20 +21 +21 комфорт 1021.3 1000.4
07 18.09 Ю 2 н/о н/о +22.0 -2.0 20 +21 +21 комфорт 1021.5 1000.6
08 18.09 ЮВ 2 н/о н/о +21.0 -1.5 22 +21 +21 комфорт 1021.5 1000.6
09 18.09 ЮВ 3 н/о н/о +18.9 -2.1 24 +19 +19 1021.6 1000.7

 

Местоположение метеостанции Тибообера (Новый Южный Уэльс, Австралия): широта -29.45 долгота 142.05 высота над уровнем моря 177 м.

В архиве по умолчанию представлена погода в Тибообере за последнюю неделю. Архивные данные за месяц целиком и за предыдущие месяцы, начиная с января 2011 года, Вы можете получить, выбрав интересующий диапазон дат из раскрывающегося списка и нажав кнопку "Ввод!".


*Определитесь, кто Вы:
робот инопланетянин человек

Внимание! Время в таблицах - всемирное. Для получения местного времени необходимо прибавить поправку, которая равна 10 ч.

Смотрите также архив погоды в соседних городах и на ближайших метеорологических станциях:

Погода в Уафт Клифс (Новый Южный Уэльс, Австралия) (184 км)
Погода в Фоулерс Гэп (Новый Южный Уэльс, Австралия) (184 км)
Погода в Месторождении Ballera (Квинсленд, Австралия) (227 км)
Погода в Мумбе (Южная Австралия, Австралия) (235 км)
Погода в Таргоминде (Квинсленд, Австралия) (237 км)
Погода в Уилкании (Новый Южный Уэльс, Австралия) (263 км)
Погода в Брокен-Хилл аэропорту (Новый Южный Уэльс, Австралия) (289 км)
Погода в Ли-Крике (Южная Австралия, Австралия) (372 км)
Погода в Бурке (Новый Южный Уэльс, Австралия) (382 км)
Погода в Марри (Южная Австралия, Австралия) (387 км)

Пояснения к столбцам:

Ветер - указаны скорость ветра в м/с - средняя за 10 мин, порывы в срок и между сроками (в фигурных скобках) и направление, откуда дует ветер: С - северный, СВ - северо-восточный, В - восточный, ЮВ - юго-восточный, Ю - южный, ЮЗ - юго-западный, З - западный, СЗ - северо-западный.
Видимость - горизонтальная дальность видимости в метрах или километрах. При видимости от 1 до 10 км при отсутствии осадков обычно наблюдается дымка, при ухудшении видимости до 1 км и менее - туман. В сухую погоду видимость может ухудшаться дымом, пылью или мглою.
Явления - указаны атмосферные явления, наблюдавшиеся в срок или в последний час перед сроком; фигурными скобками обозначены явления, наблюдавшиеся между сроками (за 1-3 часа до срока); квадратными скобками обозначены град или гололедные отложения с указанием их диаметра в мм.
Облачность - указаны через наклонную черту общая и нижняя облачность в баллах и высота нижней границы облаков в метрах; квадратными скобками обозначены формы облаков: Ci - перистые, Cs - перисто-слоистые, Cc - перисто-кучевые, Ac - высококучевые, As - высокослоистые, Sc - слоисто-кучевые, Ns - слоисто-дождевые, Cu - кучевые, Cb - кучево-дождевые. Подробнее классификацию облаков см. в Атласе облаков (PDF).
T - Температура воздуха - температура, измеренная на высоте 2 м над землей.
Td - Температура точки росы - температура, при понижении до которой содержащийся в воздухе водяной пар достигнет насыщения.
f - Относительная влажность воздуха - влажноcть воздуха, измеренная на высоте 2 м над землей.
Te - Эффективная температура - температура, которую ощущает одетый по сезону человек в тени. Характеристика душности погоды. При расчете учитывается влияние влажности воздуха и скорости ветра на теплоощущения человека.
Tes - Эффективная температура на солнце - температура, которую ощущает человек, с поправкой на солнечный нагрев. Характеристика знойности погоды. Зависит от высоты солнца над горизонтом, облачности и скорости ветра. Ночью, в пасмурную погоду, а также при ветре 12 м/с и более поправка равна нулю.
P - Атмосферное давление - приведенное к уровню моря атмосферное давление.
Po - Атмосферное давление - измеренное на уровне метеостанции атмосферное давление.
Tmin - Минимальная температура - минимум температуры воздуха на высоте 2 м над землей.
Tmax - Максимальная температура - максимум температуры воздуха на высоте 2 м над землей.
R - Количество осадков - Количество выпавших осадков за период времени, мм. При наведении курсора мыши на число - период времени, за который выпало указанное количество осадков.
R24 - Количество осадков - Количество выпавших осадков за 24 часа, мм.
S - Снежный покров - Высота снежного покрова, см. При наведении курсора мыши на число - состояние снежного покрова и степень покрытия местности в баллах.